Time,TemperatureF,DewpointF,PressureIn,WindDirection,WindDirectionDegrees,WindSpeedMPH,WindSpeedGustMPH,Humidity,HourlyPrecipIn,Conditions,Clouds,dailyrainin,SoftwareType,DateUTC
2014-02-19 00:11:00,42.0,35.0,29.80,SSW,200,13.0,18.0,74,-99.99,,,-99.99,,2014-02-19 08:11:00,
2014-02-19 00:42:00,42.0,35.0,29.81,SW,220,25.0,34.0,76,-99.99,,,-99.99,,2014-02-19 08:42:00,
2014-02-19 01:11:00,42.0,36.0,29.81,WSW,240,18.0,22.0,78,-99.99,,,-99.99,,2014-02-19 09:11:00,
2014-02-19 01:43:00,43.0,35.0,29.81,SW,230,18.0,22.0,75,-99.99,,,-99.99,,2014-02-19 09:43:00,
2014-02-19 02:12:00,43.0,34.0,29.80,WSW,250,20.0,25.0,70,-99.99,,,-99.99,,2014-02-19 10:12:00,
2014-02-19 02:43:00,42.0,35.0,29.82,SW,230,22.0,29.0,77,-99.99,,,-99.99,,2014-02-19 10:43:00,
2014-02-19 03:12:00,43.0,36.0,29.83,WSW,240,18.0,22.0,74,-99.99,,,-99.99,,2014-02-19 11:12:00,
2014-02-19 03:42:00,42.0,36.0,29.84,WSW,250,16.0,20.0,78,-99.99,,,-99.99,,2014-02-19 11:42:00,
2014-02-19 04:11:00,42.0,35.0,29.85,West,260,29.0,38.0,76,-99.99,,,-99.99,,2014-02-19 12:11:00,
2014-02-19 05:12:00,41.0,34.0,29.86,West,260,25.0,29.0,75,-99.99,,,-99.99,,2014-02-19 13:12:00,
2014-02-19 05:42:00,40.0,35.0,29.87,WSW,240,31.0,36.0,82,-99.99,,,-99.99,,2014-02-19 13:42:00,
2014-02-19 06:12:00,40.0,34.0,29.90,WSW,250,27.0,34.0,76,-99.99,,,-99.99,,2014-02-19 14:12:00,
2014-02-19 06:42:00,41.0,35.0,29.92,WSW,250,22.0,27.0,76,-99.99,,,-99.99,,2014-02-19 14:42:00,
2014-02-19 07:11:00,42.0,35.0,29.93,WSW,240,20.0,25.0,77,-99.99,,,-99.99,,2014-02-19 15:11:00,
2014-02-19 07:43:00,42.0,35.0,29.93,WSW,250,25.0,31.0,73,-99.99,,,-99.99,,2014-02-19 15:43:00,
2014-02-19 08:13:00,42.0,34.0,29.94,WSW,250,25.0,31.0,71,-99.99,,,-99.99,,2014-02-19 16:13:00,
2014-02-19 08:43:00,42.0,33.0,29.96,WSW,250,25.0,29.0,67,-99.99,,,-99.99,,2014-02-19 16:43:00,
2014-02-19 09:12:00,43.0,32.0,29.97,West,260,22.0,29.0,65,-99.99,,,-99.99,,2014-02-19 17:12:00,
2014-02-19 09:43:00,40.0,34.0,29.98,West,260,29.0,34.0,80,-99.99,,,-99.99,,2014-02-19 17:43:00,
2014-02-19 10:12:00,40.0,35.0,29.99,WSW,250,27.0,31.0,82,-99.99,,,-99.99,,2014-02-19 18:12:00,
2014-02-19 10:42:00,40.0,35.0,30.01,WSW,240,27.0,31.0,79,-99.99,,,-99.99,,2014-02-19 18:42:00,
2014-02-19 11:12:00,41.0,35.0,30.03,WSW,240,20.0,25.0,78,-99.99,,,-99.99,,2014-02-19 19:12:00,
2014-02-19 11:42:00,42.0,35.0,30.04,WSW,250,20.0,25.0,74,-99.99,,,-99.99,,2014-02-19 19:42:00,
2014-02-19 12:11:00,42.0,35.0,30.06,West,270,20.0,25.0,73,-99.99,,,-99.99,,2014-02-19 20:11:00,
2014-02-19 12:42:00,42.0,33.0,30.06,West,260,25.0,29.0,69,-99.99,,,-99.99,,2014-02-19 20:42:00,
2014-02-19 13:11:00,43.0,33.0,30.06,West,260,22.0,27.0,67,-99.99,,,-99.99,,2014-02-19 21:11:00,
2014-02-19 13:43:00,44.0,33.0,30.07,West,270,20.0,25.0,67,-99.99,,,-99.99,,2014-02-19 21:43:00,
2014-02-19 14:12:00,44.0,34.0,30.07,West,260,18.0,22.0,69,-99.99,,,-99.99,,2014-02-19 22:12:00,
2014-02-19 14:42:00,43.0,34.0,30.07,WSW,250,22.0,27.0,70,-99.99,,,-99.99,,2014-02-19 22:42:00,
2014-02-19 15:43:00,43.0,34.0,30.08,West,260,16.0,18.0,70,-99.99,,,-99.99,,2014-02-19 23:43:00,
2014-02-19 16:11:00,44.0,35.0,30.08,West,270,13.0,18.0,71,-99.99,,,-99.99,,2014-02-20 00:11:00,
2014-02-19 16:42:00,44.0,34.0,30.08,West,260,18.0,20.0,68,-99.99,,,-99.99,,2014-02-20 00:42:00,
2014-02-19 17:11:00,44.0,35.0,30.08,West,270,13.0,20.0,70,-99.99,,,-99.99,,2014-02-20 01:11:00,
2014-02-19 18:12:00,44.0,34.0,30.07,WSW,250,11.0,16.0,67,-99.99,,,-99.99,,2014-02-20 02:12:00,
2014-02-19 19:11:00,44.0,34.0,30.08,SW,230,7.0,7.0,66,-99.99,,,-99.99,,2014-02-20 03:11:00,
2014-02-19 19:43:00,44.0,34.0,30.07,South,180,4.0,7.0,67,-99.99,,,-99.99,,2014-02-20 03:43:00,
2014-02-19 20:13:00,44.0,33.0,30.06,SE,130,11.0,16.0,64,-99.99,,,-99.99,,2014-02-20 04:13:00,
2014-02-19 20:43:00,44.0,35.0,30.04,ESE,120,18.0,20.0,70,-99.99,,,-99.99,,2014-02-20 04:43:00,
2014-02-19 21:12:00,43.0,35.0,30.03,ESE,110,16.0,20.0,73,-99.99,,,-99.99,,2014-02-20 05:12:00,
2014-02-19 21:43:00,43.0,38.0,30.01,ESE,120,18.0,20.0,80,-99.99,,,-99.99,,2014-02-20 05:43:00,
2014-02-19 22:12:00,43.0,37.0,30.00,SE,130,18.0,22.0,78,-99.99,,,-99.99,,2014-02-20 06:12:00,
2014-02-19 22:42:00,43.0,37.0,29.98,ESE,120,22.0,27.0,80,-99.99,,,-99.99,,2014-02-20 06:42:00,
2014-02-19 23:11:00,43.0,37.0,29.97,SE,130,22.0,25.0,80,-99.99,,,-99.99,,2014-02-20 07:11:00,
2014-02-19 23:42:00,43.0,37.0,29.95,SE,130,22.0,27.0,80,-99.99,,,-99.99,,2014-02-20 07:42:00,